COSMOS 1828

Satellite information

Favourite Embed

Satellite Type and Status

PAYLOADIN ORBIT

Key statistics

Satellite COSMOS 1828 at a glance.

Uptime

14162

Days in orbit

Revolutions

≈ 12.7

Per day

Orbit

LEO

Low Earth Orbit

Inclination

82.6

Latest

Satellite identification and parameters

Extended collection of information and parameters for COSMOS 1828.

Object identification

Identified? True

Debris? False

Object name: COSMOS 1828

International designator: 1987-026B

Object number (NORAD): 17583

Object ID (CCSDS): 17583

Country: COMMONWEALTH OF INDEPENDENT STATES (CIS)

Current information (Y/N): Y

RCS size: LARGE

Orbital parameters

Period: 113.72 minutes

Inclination: 82.5666 deg

SMA: 7775.333 km

Apoapsis: 1412.469 km

Periapsis: 1381.927 km

RAAN: 281.3783 deg

Eccentricy: 0.00196398

Argument of periapsis: 118.0297 deg

Mean anomaly: 308.0209 deg

Mean motion: 12.66264002 rev/day

Mean motion (dot): 0.00000013 rev/day2

B* drag term: 0.000011900807 1/REarth

Two-line elements (TLE)

Creation date: Dec. 20, 2025, 3:40 a.m.

Reference frame: TEME

Reference center: EARTH

Epoch: Dec. 19, 2025, 9:52 p.m. UTC

TLE line 0: 0 COSMOS 1828

TLE line 1: 1 17583U 87026B 25353.91161455 .00000013 00000-0 11901-4 0 9997

TLE line 2: 2 17583 82.5666 281.3783 0019640 118.0297 308.0209 12.66264002791850

Live tracking on map

Real-time ground track for satellite COSMOS 1828.

In-orbit conjunctions

There are no conjunctions computed for COSMOS 1828, at the moment. Check back to stay up to date, as we update our databases every day.

Go to all conjunctions

Associated space launch

Second generation store-dump military communications satellite

COSMOS 1828 was lifted into orbit during the mission ‘Tsiklon-3 | Strela-3 19 to 24’, on board a Tsiklon-3 space rocket.

The launch took place on March 13, 1987, 1:11 p.m. from 32/2.

For more information about the launch, click the button.

Launch to space Tsiklon-3 | Strela-3 19 to 24
Tsiklon-3 | Strela-3 19 to 24

Agency: N/A

Status: Launch Successful

Launch date: March 13, 1987, 1:11 p.m. UTC

Rocket: Tsiklon-3

Launch pad: 32/2

Location: Plesetsk Cosmodrome, Russian Federation

...

Latest news about this satellite

There are no fresh news available about this satellite. Check back as we update our databases every day.


Newsletter sign-up

Weekly statistics, charts and insights to help you stay on top of the space industry.